Regional Weather Roundup
Issued by NWS State College, PA

Home | Current Version | Previous Version | Text Only | Print | Product List | Glossary Off
Versions: 1 2 3 4 5 6 7 8 9 10 11 12 13 14 15 16 17 18 19 20 21 22 23 24 25 26 27 28 29 30 31 32 33 34 35 36 37 38 39 40 41 42 43 44 45 46 47 48 49 50

390
ASUS41 KCTP 221710
RWRCTP

REGIONAL WEATHER ROUNDUP
NATIONAL WEATHER SERVICE STATE COLLEGE PA
100 PM EDT SAT JUL 22 2017

Note: "fair" indicates few or no clouds below 12,000 feet with no
significant weather and/or obstructions to visibility.

* = STATION THAT DOES NOT REPORT PRECIPITATION /E.G. RAIN...SNOW...ETC/
    THUNDER OR FOG.

PAZ002>004-007>009-013>016-020>023-029>032-221800-
WESTERN PENNSYLVANIA

CITY           SKY/WX    TMP DP  RH WIND       PRES   REMARKS
ERIE           MOSUNNY   79  71  76 S10       29.84S
MEADVILLE      LGT RAIN  69  67  93 S6        29.88S FOG
FRANKLIN*      CLOUDY    72  68  88 CALM      29.88F
NEW CASTLE     CLOUDY    72  70  93 SW8       29.87S
BEAVER COUNTY  CLOUDY    72  70  94 SW9       29.88F
BUTLER*        CLOUDY    73  70  88 SW12G17   29.87F
PITTSBURGH INT LGT RAIN  72  71  97 S8        29.88F
PITTSBURGH     LGT RAIN  72  68  87 SW10      29.90R FOG
INDIANA*       PTSUNNY   73  73 100 SW10      29.93S
LATROBE        PTSUNNY   73  73 100 SW12      29.91F
WASHINGTON CO* CLOUDY    73  68  83 SW6       29.92S
$$

PAZ004>006-010>012-017>019-024>028-033>037-041-042-045-046-049>053-221800-
CENTRAL PENNSYLVANIA

CITY           SKY/WX    TMP DP  RH WIND       PRES   REMARKS
BRADFORD       LGT RAIN  73  68  84 S3        29.94F
DUBOIS         LGT RAIN  74  69  85 SE7       29.89F
CLEARFIELD     CLOUDY    79  71  76 S6        29.91F
JOHNSTOWN      CLOUDY    73  70  90 SW9       29.94F
ALTOONA        LGT RAIN  76  74  93 SW6       29.93F FOG
STATE COLLEGE  MOSUNNY   81  70  69 SW7       29.91F
WILLIAMSPORT   CLOUDY    83  69  62 S7        29.87F
SELINSGROVE    CLOUDY    84  70  62 SE3       29.88F
FT INDIANTOWN  PTSUNNY   86  70  58 SW6       29.88F
CAPITAL CITY   CLOUDY    88  69  53 S10       29.87F
HARRISBURG     CLOUDY    88  71  57 S3        29.86F
YORK           PTSUNNY   86  70  58 W6        29.88F
$$

PAZ038>040-043-044-047-048-054-055-060>062-067>071-221800-
EASTERN PENNSYLVANIA

CITY           SKY/WX    TMP DP  RH WIND       PRES   REMARKS
SCRANTON       CLOUDY    84  67  56 VRB5      29.90F
MOUNT POCONO   CLOUDY    78  64  61 S5        29.95F
ALLENTOWN      SUNNY     88  65  46 SW6       29.87F
QUAKERTOWN*    MOSUNNY   88  68  51 W3        29.89F
READING        MOSUNNY   87  69  54 VRB3      29.86F
LANCASTER      PTSUNNY   88  72  58 CALM      29.87F
COATESVILLE    SUNNY     88  72  58 VRB5      29.90F
POTTSTOWN      SUNNY     86  67  52 CALM      29.89F
BLUE BELL      MOSUNNY   86  70  58 CALM      29.88F
DOYLESTOWN     PTSUNNY   86  68  54 CALM      29.87F
WILLOW GROVE   NOT AVBL
NORTH PHILA    SUNNY     91  68  46 VRB5      29.87F HX  95
PHILADELPHIA   PTSUNNY   92  68  45 S7        29.86F HX  96
$$




USA.gov is the U.S. government's official web portal to all federal, state and local government web resources and services.